Location: Middelsbur
(53.6609°N, 7.5020°E)
Time: 13:03:51
(UTC+00:00)

Meteor 1-26 Rocket - Pass Details

Date: 06 July 2020
Orbit: 811 x 924 km, 81.3° (Epoch: 06 August)

Event Time Altitude Azimuth Distance (km) Brightness Sun altitude
Rises 23:15:34 0° 345° (NNW) 3,585 9.3 -13.7°
Reaches altitude 10° 23:18:04 10° 343° (NNW) 2,635 8.1 -13.7°
Maximum altitude 23:24:05 72° 261° (W) 962 4.4 -13.7°
Enters shadow 23:28:21 20° 180° (S) 1,985 5.5 -13.8°
